This demonstration page uses our WeatherBlox Daily Observations layout. Learn more.

Left ArrowRight Arrow

Hourly Observations for June 21, 2018

Temp ( °F °C ) Dew Point ( °F °C ) Humidity (%) Winds ( mph kmh ) Pressure ( in mb ) Visibility ( mi km ) Precip ( " mm )
1:57 am 01:57 Clear 59 15 56 13.3 90 90 WNW 7 11 29.93 1014 10 16 0.00 0.00
2:57 am 02:57 Clear 60 15.6 56 13.3 86 86 WNW 10 17 29.92 1013 10 16 0.00 0.00
3:57 am 03:57 Clear 59 15 55 12.8 87 87 WNW 13 20 29.91 1013 10 16 0.00 0.00
4:57 am 04:57 Clear 58 14.4 55 12.8 90 90 WNW 12 19 29.92 1013 10 16 0.00 0.00
5:57 am 05:57 Clear 58 14.4 55 12.8 90 90 WNW 10 17 29.92 1013 10 16 0.00 0.00
6:57 am 06:57 Sunny 58 14.4 55 12.8 90 90 WNW 13 20 29.92 1013 10 16 0.00 0.00
7:57 am 07:57 Sunny 61 16.1 56 13.3 84 84 NW 17 28 29.91 1013 10 16 0.00 0.00
8:57 am 08:57 Sunny 64 17.8 57 13.9 78 78 NW 17 28 29.93 1014 10 16 0.00 0.00
9:57 am 09:57 Sunny 68 20 57 13.9 68 68 NNW 22 35 29.92 1013 10 16 0.00 0.00
10:57 am 10:57 Mostly Sunny 70 21.1 56 13.3 61 61 NNW 23 37 29.91 1013 10 16 0.00 0.00
11:57 am 11:57 Mostly Cloudy 74 23.3 55 12.8 52 52 NNW 26 43 29.91 1013 10 16 0.00 0.00
12:57 pm 12:57 Mostly Cloudy 75 23.9 54 12.2 48 48 N 25 41 29.90 1013 10 16 0.00 0.00
1:57 pm 13:57 Cloudy 75 23.9 53 11.7 46 46 NNW 26 43 29.90 1013 10 16 0.00 0.00
2:57 pm 14:57 Mostly Cloudy 76 24.4 53 11.7 45 45 N 22 35 29.90 1013 10 16 0.00 0.00
3:57 pm 15:57 Partly Cloudy 76 24.4 55 12.8 48 48 N 23 37 29.89 1012 10 16 0.00 0.00
4:57 pm 16:57 Mostly Cloudy 75 23.9 55 12.8 50 50 N 22 35 29.89 1012 10 16 0.00 0.00
5:57 pm 17:57 Partly Cloudy 77 25 55 12.8 47 47 NNW 21 33 29.89 1012 10 16 0.00 0.00
6:57 pm 18:57 Mostly Cloudy 73 22.8 60 15.6 64 64 NNE 22 35 29.90 1013 10 16 0.00 0.00
7:57 pm 19:57 Cloudy 69 20.6 60 15.6 73 73 NE 16 26 29.92 1013 10 16 0.00 0.00
8:57 pm 20:57 Cloudy 66 18.9 56 13.3 70 70 NE 16 26 29.92 1013 10 16 0.00 0.00
9:57 pm 21:57 Clear 62 16.7 57 13.9 84 84 NE 7 11 29.93 1014 10 16 0.00 0.00
10:57 pm 22:57 Clear 60 15.6 57 13.9 90 90 N 7 11 29.96 1015 10 16 0.00 0.00
11:57 pm 23:57 Clear 60 15.6 57 13.9 90 90 NW 6 9 29.96 1015 10 16 0.00 0.00

Powered by AerisWeather